Showing default

OPS 9332 (IDSCS 17), 2863

Orbit data source: Space-Track

OPS 9332 (IDSCS 17), 2863 is a payload satellite owned by SAMSO (US) in GEO that was launched on Sat, 01 Jul 1967 UTC via a TITAN IIIC launch vehicle from the Air Force Eastern Test Range (AFETR). Payload-class satellites include a variety of spacecraft equipped with specific instruments for various scientific and technological missions. These include communications satellites like Starlink; space stations such as the ISS; scientific satellites like the Hubble; Earth observation satellites from companies like Planet Labs, Umbra, and HawkEye 360; GPS; miniature CubeSats for education and research; and military/defense satellites.

Not visible in the next 10 days
Identifier
2863, 1967-066B
Orbit
GEO
Country
Flag of USUS
Related business
Manufacturer
Philco-Ford WDL
Mission
Non-operational spacecraft
Bus & Motor
IDCSP, Unknown motor
Mass
45 kg wet, 45 kg dry
Launch date (UTC)
1967-07-01 (59 years ago)
Launch vehicle
TITAN IIIC
Launch site
Air Force Eastern Test Range (AFETR)
Object type
Payload
Rocket body
Debris
Shape & HBR
POLY, 1.1 m
Radar Cross Section
Medium (>0.1 m² and <1 m²)

Expand to show TLE details & history
Last TLE update: 9 hours ago

TLE from 9 hours ago
0 OPS 9332 (IDSCS 17)
1 02863U 67066B   26254.86770131 -.00000072  00000-0  00000-0 0  9996
2 02863   3.0510  92.1594 0059869 247.8666 328.8831  1.09896733125676
Epoch: 2026-09-11T20:49Z
TLE epoch observation values (Epoch: 2026-09-11T20:49:29.393Z)
Latitude
-1.79566°
Longitude
5.25083°
Altitude
33,083.337 km
Speed
3.186 km/s
True Right ascension
20h 34m 01s
True Declination
-1° 47' 37"
Sunlit
Object was in daylight at epoch
Visualization orbit readout
Latitude
Unknown
Longitude
Unknown
Altitude
Unknown
Speed
Unknown
Apparent Right ascension
Unknown
Apparent Declination
Unknown
Sunlit
N/A
Visualization observer readout
Local Sidereal Time
21:44:13
Azimuth
Unknown
Elevation
Unknown
Doppler factor
Unknown
Orbital elements
Apogee altitude
33,525.886 km
Perigee altitude
33,050.927 km
Semi-major axis
39,666.544 km
Eccentricity
0.00599
Inclination
3.051°
RAAN
92.1594°
Arg. of periapsis
247.8666°
True anomaly
328.52628°
Mean anomaly
328.8831°
Eccentric anomaly
328.70492°
Mean motion
0.27473 °/min
Orbital period
1,310.38 mins
BSTAR
0
Loading maneuver chart data...
Computing Atmospheric mass density...
Loading historical data...
Loading historical data...
Loading historical data...
Loading historical data...
Loading historical data...
Loading historical data...
Loading historical data...

Documentation

Showing up to 5 results
|